GW0175 Weather Reports


time (UTC)temp
F
wind
direction
speed
knots
gust
knots
rain 1hr
in
rain 24hr
in
rain mn
in
humidity
%
barometer
mb
20260507172024 64 210 1.7 4.3 0.00 0.00 0.00 49 1016.9
20260507171519 62 283 1.7 4.3 0.00 0.00 0.00 52 1017.0
20260507171017 62 21 1.7 5.2 0.00 0.00 0.00 52 1017.2
20260507170513 62 346 0.0 2.6 0.00 0.00 0.00 52 1017.2
20260507170010 61 233 2.6 6.1 0.00 0.00 0.00 53 1017.2
20260507165506 61 315 1.7 6.1 0.00 0.00 0.00 53 1017.4
20260507165003 62 21 0.0 3.5 0.00 0.00 0.00 53 1017.4
20260507164459 61 15 0.9 3.5 0.00 0.00 0.00 52 1017.7
20260507163955 60 31 6.1 7.8 0.00 0.00 0.00 55 1017.6
20260507163453 61 36 1.7 2.6 0.00 0.00 0.00 53 1017.9
20260507162950 59 63 0.0 4.3 0.00 0.00 0.00 55 1017.7
20260507162445 60 353 1.7 3.5 0.00 0.00 0.00 54 1017.7
20260507161943 60 354 2.6 4.3 0.00 0.00 0.00 53 1017.8
20260507161439 61 145 0.0 4.3 0.00 0.00 0.00 52 1018.2
20260507160936 60 96 1.7 3.5 0.00 0.00 0.00 54 1018.0
20260507160432 57 22 2.6 7.0 0.00 0.00 0.00 57 1018.4
20260507155927 58 78 1.7 4.3 0.00 0.00 0.00 56 1018.3
20260507155424 57 31 5.2 6.1 0.00 0.00 0.00 57 1018.5
20260507154921 58 71 0.9 7.0 0.00 0.00 0.00 57 1018.4
20260507154417 57 38 3.5 5.2 0.00 0.00 0.00 56 1018.3
20260507153915 57 157 0.0 7.0 0.00 0.00 0.00 58 1018.5
20260507153411 56 32 4.3 7.8 0.00 0.00 0.00 57 1018.9
20260507152908 55 11 4.3 8.7 0.00 0.00 0.00 58 1018.8
20260507152404 56 41 1.7 6.1 0.00 0.00 0.00 58 1019.0
20260507151900 56 45 5.2 7.8 0.00 0.00 0.00 58 1018.6
20260507151356 55 15 2.6 7.8 0.00 0.00 0.00 58 1018.9
20260507150854 55 32 4.3 7.8 0.00 0.00 0.00 60 1018.8
20260507150350 53 9 6.1 9.6 0.00 0.00 0.00 61 1018.8
20260507145846 54 43 4.3 7.8 0.00 0.00 0.00 62 1019.2
20260507145343 53 29 7.0 8.7 0.00 0.00 0.00 62 1019.1
20260507144840 53 33 2.6 8.7 0.00 0.00 0.00 62 1019.3
20260507144337 52 17 6.1 8.7 0.00 0.00 0.00 63 1018.9
20260507143834 53 20 7.8 10.4 0.00 0.00 0.00 63 1019.2
20260507143331 52 53 2.6 9.6 0.00 0.00 0.00 64 1019.3
20260507142827 52 15 6.1 10.4 0.00 0.00 0.00 64 1019.3
20260507142323 51 15 6.1 9.6 0.00 0.00 0.00 64 1019.2
20260507141820 51 40 8.7 10.4 0.00 0.00 0.00 65 1019.1
20260507141317 51 349 5.2 9.6 0.00 0.00 0.00 66 1019.2
20260507140813 51 45 6.1 9.6 0.00 0.00 0.00 66 1019.2
20260507140310 51 21 4.3 12.2 0.00 0.00 0.00 66 1019.2
20260507135808 51 32 7.8 10.4 0.00 0.00 0.00 66 1019.4
20260507135306 51 19 7.8 12.2 0.00 0.00 0.00 66 1019.3
20260507134802 51 21 6.1 12.2 0.00 0.00 0.00 66 1019.1
20260507134258 51 27 9.6 9.6 0.00 0.00 0.00 66 1019.4
20260507133754 51 30 8.7 13.9 0.00 0.00 0.00 65 1019.1
20260507133250 51 35 9.6 13.0 0.00 0.00 0.00 66 1019.2
20260507132748 51 33 9.6 12.2 0.00 0.00 0.00 66 1019.2
20260507132245 51 35 5.2 12.2 0.00 0.00 0.00 66 1019.1
20260507131742 51 29 4.3 11.3 0.00 0.00 0.00 66 1019.2
20260507131239 51 8 5.2 9.6 0.00 0.00 0.00 65 1019.1
20260507130735 51 27 7.0 11.3 0.00 0.00 0.00 65 1019.1
20260507130233 51 10 7.0 13.0 0.00 0.00 0.00 66 1019.0
20260507125732 51 36 7.8 11.3 0.00 0.00 0.00 65 1019.0
20260507125229 51 0 9.6 12.2 0.00 0.00 0.00 66 1018.9
20260507124725 51 20 7.8 10.4 0.00 0.00 0.00 66 1019.0
20260507124222 50 0 1.7 11.3 0.00 0.00 0.00 66 1018.9
20260507123721 50 18 4.3 11.3 0.00 0.00 0.00 66 1019.0
20260507123218 50 30 7.8 12.2 0.00 0.00 0.00 67 1018.9
20260507122713 50 5 5.2 9.6 0.00 0.00 0.00 67 1018.8
20260507122209 50 27 7.0 11.3 0.00 0.00 0.00 67 1018.8
20260507121705 50 33 7.0 13.0 0.00 0.00 0.00 67 1018.4
20260507121201 50 22 6.1 12.2 0.00 0.00 0.00 67 1018.8
20260507120657 50 20 6.1 11.3 0.00 0.00 0.00 67 1018.5
20260507120154 50 10 9.6 12.2 0.00 0.00 0.00 67 1018.5
20260507115650 50 20 9.6 14.8 0.00 0.00 0.00 67 1018.5
20260507115146 50 14 10.4 14.8 0.00 0.00 0.00 68 1018.6
20260507114642 50 14 6.1 13.0 0.00 0.00 0.00 68 1018.5
20260507114140 50 0 9.6 14.8 0.00 0.00 0.00 68 1018.8
20260507113637 50 34 10.4 15.6 0.00 0.00 0.00 68 1018.4
20260507113134 50 0 7.8 13.9 0.00 0.00 0.00 68 1018.6
20260507112632 50 12 10.4 14.8 0.00 0.00 0.00 68 1018.6
20260507112128 50 27 7.8 14.8 0.00 0.00 0.00 68 1018.6
20260507111625 50 24 12.2 13.9 0.00 0.00 0.00 68 1018.4
20260507111122 50 0 12.2 13.9 0.00 0.00 0.00 68 1018.6
20260507110618 50 356 9.6 15.6 0.00 0.00 0.00 68 1018.4
20260507110115 49 28 7.0 13.0 0.00 0.00 0.00 69 1018.4
20260507105612 49 22 7.8 13.0 0.00 0.00 0.00 69 1018.4
20260507105108 49 2 9.6 12.2 0.00 0.00 0.00 69 1018.3
20260507104606 49 10 7.8 12.2 0.00 0.00 0.00 69 1018.3
20260507104102 49 6 9.6 13.0 0.00 0.00 0.00 69 1018.4
20260507103558 49 355 8.7 10.4 0.00 0.00 0.00 69 1018.4
20260507103055 49 18 7.8 11.3 0.00 0.00 0.00 68 1018.1
20260507102551 49 7 10.4 13.0 0.00 0.00 0.00 68 1018.3
20260507102047 50 354 5.2 11.3 0.00 0.00 0.00 68 1018.3
20260507101543 50 0 10.4 12.2 0.00 0.00 0.00 68 1018.0
20260507101039 50 6 12.2 13.9 0.00 0.00 0.00 68 1018.0
20260507100537 50 10 7.8 11.3 0.00 0.00 0.00 68 1018.2
20260507100035 50 7 8.7 13.0 0.00 0.00 0.00 67 1017.7
20260507095532 50 21 7.8 14.8 0.00 0.00 0.00 67 1017.7
20260507095029 50 359 9.6 13.9 0.00 0.00 0.00 67 1017.8
20260507094525 50 340 6.1 14.8 0.00 0.00 0.00 66 1017.6
20260507094022 51 0 10.4 16.5 0.00 0.00 0.00 66 1017.8
20260507093519 51 0 16.5 16.5 0.00 0.00 0.00 66 1017.6
20260507093018 51 3 11.3 15.6 0.00 0.00 0.00 66 1017.7
20260507092514 51 352 10.4 17.4 0.00 0.00 0.00 66 1017.3
20260507092011 51 9 8.7 15.6 0.00 0.00 0.00 66 1017.2
20260507091508 50 12 7.8 13.9 0.00 0.00 0.00 66 1017.3
20260507091004 50 33 7.8 9.6 0.00 0.00 0.00 66 1017.2
20260507090459 51 349 13.9 15.6 0.00 0.00 0.00 65 1017.1
20260507085956 51 3 11.3 14.8 0.00 0.00 0.00 65 1017.3
20260507085454 51 349 15.6 19.1 0.00 0.00 0.00 64 1017.6
20260507084950 51 358 14.8 18.2 0.00 0.00 0.00 64 1017.0
20260507084447 52 359 12.2 17.4 0.00 0.00 0.00 64 1017.0
20260507083944 52 332 8.7 13.0 0.00 0.00 0.00 64 1017.0
20260507083440 52 8 13.0 15.6 0.00 0.00 0.00 63 1016.8
20260507082937 52 359 7.8 13.9 0.00 0.00 0.00 63 1016.8
20260507082433 52 6 7.0 15.6 0.00 0.00 0.00 63 1017.0
20260507081930 52 0 7.0 9.6 0.00 0.00 0.00 63 1016.9
20260507081426 52 358 8.7 13.9 0.00 0.00 0.00 63 1016.8
20260507080923 52 1 7.0 10.4 0.00 0.00 0.00 63 1016.9
20260507080419 52 10 7.0 12.2 0.00 0.00 0.00 63 1016.9
20260507075914 52 337 3.5 11.3 0.00 0.00 0.00 63 1016.8
20260507075411 52 330 5.2 15.6 0.00 0.00 0.00 63 1016.8
20260507074908 52 346 4.3 16.5 0.00 0.00 0.00 63 1016.6
20260507074404 52 15 4.3 11.3 0.00 0.00 0.00 62 1016.6
20260507073902 52 359 11.3 18.2 0.00 0.00 0.00 62 1016.3
20260507073358 52 345 12.2 18.2 0.00 0.00 0.00 61 1016.2
20260507072855 52 8 10.4 20.9 0.00 0.00 0.00 61 1016.0
20260507072353 52 4 11.3 22.6 0.00 0.00 0.00 61 1016.0
20260507071850 52 8 15.6 26.9 0.00 0.00 0.00 61 1015.5
20260507071347 52 9 17.4 23.5 0.00 0.00 0.00 62 1015.5
20260507070843 52 6 14.8 25.2 0.00 0.00 0.00 62 1015.6
20260507070341 52 356 21.7 26.1 0.00 0.00 0.00 61 1015.6
20260507065838 52 0 12.2 25.2 0.00 0.00 0.00 61 1015.5
20260507065334 52 344 13.9 21.7 0.00 0.00 0.00 61 1015.6
20260507064831 52 26 13.9 24.3 0.00 0.00 0.00 61 1015.4
20260507064330 52 15 8.7 25.2 0.00 0.00 0.00 61 1015.5
20260507063827 53 17 15.6 22.6 0.00 0.00 0.00 61 1015.4
20260507063324 53 1 19.1 26.1 0.00 0.00 0.00 61 1015.0
20260507062821 53 352 14.8 28.7 0.00 0.00 0.00 61 1014.7
20260507062318 53 16 17.4 26.1 0.00 0.00 0.00 61 1014.9
20260507061816 53 4 17.4 29.5 0.00 0.00 0.00 61 1014.6
20260507061314 53 4 20.9 28.7 0.00 0.00 0.00 60 1014.8
20260507060812 54 348 14.8 28.7 0.00 0.00 0.00 60 1014.8
20260507060308 54 33 16.5 22.6 0.00 0.00 0.00 60 1014.5
20260507055805 55 0 15.6 29.5 0.00 0.00 0.00 59 1014.5
20260507055300 55 11 15.6 30.4 0.00 0.00 0.00 58 1014.5
20260507054756 55 34 9.6 27.8 0.00 0.00 0.00 58 1014.6
20260507054253 56 6 20.9 27.8 0.00 0.00 0.00 57 1014.7
20260507053750 56 359 13.0 26.1 0.00 0.00 0.00 57 1014.6
20260507053248 56 18 7.0 26.1 0.00 0.00 0.00 56 1014.5
20260507052747 56 12 17.4 25.2 0.00 0.00 0.00 56 1014.4
20260507052243 57 23 11.3 25.2 0.00 0.00 0.00 55 1014.6
20260507051741 57 7 13.0 24.3 0.00 0.00 0.00 54 1014.5
20260507051237 58 18 14.8 21.7 0.00 0.00 0.00 53 1014.5
20260507050734 58 349 14.8 32.2 0.00 0.00 0.00 53 1014.4
20260507050231 60 25 10.4 24.3 0.00 0.00 0.00 50 1013.9
20260507045728 61 0 24.3 26.1 0.00 0.00 0.00 44 1013.7
20260507045224 58 22 13.0 15.6 0.00 0.00 0.00 41 1013.5
20260507044722 61 325 0.0 2.6 0.00 0.00 0.00 34 1012.6
20260507044218 62 307 1.7 3.5 0.00 0.00 0.00 33 1012.2
20260507043714 63 282 0.0 4.3 0.00 0.00 0.00 32 1012.1
20260507043211 63 323 1.7 3.5 0.00 0.00 0.00 32 1012.1
20260507042708 63 270 1.7 2.6 0.00 0.00 0.00 32 1011.9
20260507042202 63 235 0.0 2.6 0.00 0.00 0.00 32 1011.9
20260507041700 64 262 0.0 2.6 0.00 0.00 0.00 31 1012.1
20260507041156 64 270 2.6 3.5 0.00 0.00 0.00 30 1011.9
20260507040653 64 247 2.6 6.1 0.00 0.00 0.00 29 1011.8
20260507040150 64 259 3.5 5.2 0.00 0.00 0.00 30 1011.6
20260507035646 64 240 2.6 4.3 0.00 0.00 0.00 30 1011.9
20260507035142 65 235 4.3 5.2 0.00 0.00 0.00 30 1011.8
20260507034639 65 255 1.7 5.2 0.00 0.00 0.00 30 1011.4
20260507034136 65 231 3.5 5.2 0.00 0.00 0.00 30 1011.3
20260507033635 65 243 2.6 5.2 0.00 0.00 0.00 30 1011.4
20260507033131 64 239 3.5 5.2 0.00 0.00 0.00 30 1011.4
20260507032629 65 255 3.5 5.2 0.00 0.00 0.00 30 1011.2
20260507032125 64 239 1.7 4.3 0.00 0.00 0.00 31 1011.2
20260507031622 65 234 2.6 4.3 0.00 0.00 0.00 30 1011.2
20260507031118 65 254 2.6 3.5 0.00 0.00 0.00 30 1011.0
20260507030615 66 258 1.7 4.3 0.00 0.00 0.00 29 1011.0
20260507030113 66 250 3.5 3.5 0.00 0.00 0.00 28 1011.0
20260507025610 67 251 1.7 3.5 0.00 0.00 0.00 27 1010.9
20260507025107 67 216 1.7 2.6 0.00 0.00 0.00 27 1011.0
20260507024605 68 270 0.0 1.7 0.00 0.00 0.00 26 1010.3
20260507024102 68 237 1.7 2.6 0.00 0.00 0.00 25 1010.9
20260507023557 69 270 0.9 2.6 0.00 0.00 0.00 25 1010.7
20260507023055 70 270 0.0 2.6 0.00 0.00 0.00 24 1010.3
20260507022551 70 286 0.9 4.3 0.00 0.00 0.00 23 1010.2
20260507022046 70 235 1.7 4.3 0.00 0.00 0.00 23 1010.2
20260507021543 71 248 2.6 5.2 0.00 0.00 0.00 22 1010.1
20260507021039 72 232 3.5 3.5 0.00 0.00 0.00 21 1010.0
20260507020537 73 252 2.6 6.1 0.00 0.00 0.00 20 1010.0
20260507020033 73 266 2.6 6.1 0.00 0.00 0.00 20 1010.0
20260507015532 73 259 0.0 6.1 0.00 0.00 0.00 19 1010.0
20260507015029 74 229 4.3 4.3 0.00 0.00 0.00 19 1009.9
20260507014526 75 255 3.5 6.1 0.00 0.00 0.00 18 1009.7
20260507014021 75 260 3.5 7.0 0.00 0.00 0.00 18 1009.5
20260507013518 75 287 2.6 4.3 0.00 0.00 0.00 18 1009.5
20260507013016 76 302 2.6 4.3 0.00 0.00 0.00 18 1009.5
20260507012513 77 252 2.6 6.1 0.00 0.00 0.00 17 1009.6
20260507012009 77 297 2.6 5.2 0.00 0.00 0.00 16 1009.4
20260507011506 77 257 6.1 9.6 0.00 0.00 0.00 15 1009.2
20260507011002 78 278 4.3 8.7 0.00 0.00 0.00 15 1009.2
20260507010456 78 254 4.3 10.4 0.00 0.00 0.00 15 1009.2
20260507005953 78 264 4.3 10.4 0.00 0.00 0.00 15 1008.9
20260507005451 78 256 2.6 7.8 0.00 0.00 0.00 15 1009.0
20260507004947 79 270 2.6 8.7 0.00 0.00 0.00 14 1009.1
20260507004444 79 273 2.6 9.6 0.00 0.00 0.00 14 1008.9
20260507003942 80 233 13.0 13.0 0.00 0.00 0.00 14 1008.8
20260507003437 80 262 3.5 10.4 0.00 0.00 0.00 14 1008.9
20260507002932 80 270 5.2 14.8 0.00 0.00 0.00 14 1008.8
20260507002428 80 241 3.5 13.9 0.00 0.00 0.00 14 1008.8
20260507001926 80 232 7.0 15.6 0.00 0.00 0.00 14 1008.8
20260507001422 81 298 2.6 12.2 0.00 0.00 0.00 14 1008.7
20260507000920 81 262 6.1 17.4 0.00 0.00 0.00 14 1008.7
20260507000415 81 323 3.5 12.2 0.00 0.00 0.00 14 1008.5
20260506235911 81 247 7.0 16.5 0.00 0.00 0.00 14 1008.3
20260506235409 81 272 7.0 13.0 0.00 0.00 0.00 13 1008.4
20260506234904 81 295 5.2 11.3 0.00 0.00 0.00 13 1008.5
20260506234402 81 319 1.7 13.0 0.00 0.00 0.00 13 1008.4
20260506233859 82 254 2.6 11.3 0.00 0.00 0.00 14 1008.4
20260506233355 82 261 1.7 10.4 0.00 0.00 0.00 13 1008.4
20260506232852 81 253 5.2 13.0 0.00 0.00 0.00 13 1008.6
20260506232348 82 263 7.8 14.8 0.00 0.00 0.00 13 1008.3
20260506231844 82 257 5.2 9.6 0.00 0.00 0.00 14 1008.0
20260506231342 81 239 5.2 20.0 0.00 0.00 0.00 14 1008.4
20260506230839 82 250 2.6 12.2 0.00 0.00 0.00 13 1008.3
20260506230336 82 294 4.3 13.0 0.00 0.00 0.00 13 1008.2
20260506225832 82 238 3.5 14.8 0.00 0.00 0.00 13 1008.2
20260506225330 82 235 4.3 9.6 0.00 0.00 0.00 13 1008.0
20260506224827 82 262 9.6 17.4 0.00 0.00 0.00 13 1007.9
20260506224324 83 257 4.3 8.7 0.00 0.00 0.00 14 1008.2
20260506223820 82 251 11.3 12.2 0.00 0.00 0.00 14 1008.0
20260506223315 82 265 5.2 8.7 0.00 0.00 0.00 14 1008.0
20260506222813 82 254 6.1 11.3 0.00 0.00 0.00 14 1008.0
20260506222308 81 268 4.3 14.8 0.00 0.00 0.00 14 1008.2
20260506221806 82 238 6.1 19.1 0.00 0.00 0.00 14 1007.9
20260506221303 81 238 6.1 13.9 0.00 0.00 0.00 14 1008.3
20260506220801 82 266 5.2 12.2 0.00 0.00 0.00 14 1008.3
20260506220255 81 245 4.3 13.0 0.00 0.00 0.00 14 1008.0
20260506215753 81 265 4.3 14.8 0.00 0.00 0.00 14 1008.3
20260506215248 82 236 7.8 20.9 0.00 0.00 0.00 14 1008.2
20260506214745 82 229 4.3 10.4 0.00 0.00 0.00 14 1008.2
20260506214242 80 248 7.0 14.8 0.00 0.00 0.00 15 1008.2
20260506213740 82 241 13.0 20.0 0.00 0.00 0.00 15 1008.3
20260506213232 80 255 9.6 22.6 0.00 0.00 0.00 14 1008.2
20260506212729 81 213 5.2 12.2 0.00 0.00 0.00 15 1008.2
20260506212224 81 260 5.2 13.9 0.00 0.00 0.00 14 1008.5
20260506211719 82 279 4.3 14.8 0.00 0.00 0.00 15 1008.5
20260506211216 82 311 2.6 9.6 0.00 0.00 0.00 16 1008.6
20260506210713 81 240 6.1 11.3 0.00 0.00 0.00 15 1008.7
20260506210210 81 255 7.8 16.5 0.00 0.00 0.00 16 1008.7
20260506205707 80 254 4.3 12.2 0.00 0.00 0.00 15 1008.6
20260506205202 82 264 8.7 11.3 0.00 0.00 0.00 15 1008.8
20260506204700 82 270 3.5 11.3 0.00 0.00 0.00 16 1008.9
20260506204156 80 268 7.0 15.6 0.00 0.00 0.00 17 1008.7
20260506203655 80 229 4.3 10.4 0.00 0.00 0.00 17 1008.7
20260506203152 81 273 11.3 11.3 0.00 0.00 0.00 16 1008.9
20260506202650 81 274 4.3 11.3 0.00 0.00 0.00 16 1008.9
20260506202145 81 239 4.3 9.6 0.00 0.00 0.00 17 1009.0
20260506201642 80 257 10.4 12.2 0.00 0.00 0.00 16 1008.8
20260506201139 81 268 6.1 13.0 0.00 0.00 0.00 17 1008.8
20260506200636 80 24 1.7 12.2 0.00 0.00 0.00 17 1009.0
20260506200132 80 303 4.3 13.9 0.00 0.00 0.00 17 1008.9
20260506195629 80 274 4.3 12.2 0.00 0.00 0.00 16 1008.9
20260506195125 80 287 3.5 13.0 0.00 0.00 0.00 17 1008.9
20260506194623 79 275 5.2 14.8 0.00 0.00 0.00 17 1009.0
20260506194119 80 246 7.8 8.7 0.00 0.00 0.00 18 1009.0
20260506193617 79 264 7.8 17.4 0.00 0.00 0.00 18 1009.2
20260506193114 80 279 5.2 12.2 0.00 0.00 0.00 15 1009.5
20260506192611 79 232 10.4 10.4 0.00 0.00 0.00 16 1009.5
20260506192106 80 287 1.7 10.4 0.00 0.00 0.00 16 1009.5
20260506191603 80 247 12.2 13.0 0.00 0.00 0.00 16 1009.1
20260506191059 78 282 8.7 15.6 0.00 0.00 0.00 16 1009.7
20260506190557 80 248 7.8 16.5 0.00 0.00 0.00 17 1009.1
20260506190053 78 235 8.7 12.2 0.00 0.00 0.00 18 1009.9
20260506185551 79 290 8.7 8.7 0.00 0.00 0.00 15 1009.7
20260506185047 79 280 3.5 12.2 0.00 0.00 0.00 16 1009.7
20260506184544 78 251 5.2 9.6 0.00 0.00 0.00 17 1009.7
20260506184042 79 340 0.9 8.7 0.00 0.00 0.00 16 1009.9
20260506183538 78 272 6.1 13.0 0.00 0.00 0.00 18 1009.9
20260506183034 79 270 0.0 11.3 0.00 0.00 0.00 16 1009.8
20260506182532 78 261 4.3 9.6 0.00 0.00 0.00 18 1010.0
20260506182029 77 259 4.3 13.0 0.00 0.00 0.00 17 1010.1
20260506181527 78 352 1.7 7.8 0.00 0.00 0.00 18 1010.1
20260506181023 78 256 6.1 9.6 0.00 0.00 0.00 18 1010.3
20260506180520 77 260 9.6 9.6 0.00 0.00 0.00 19 1010.0
20260506180016 77 276 6.1 10.4 0.00 0.00 0.00 19 1010.3
20260506175513 77 267 7.8 11.3 0.00 0.00 0.00 19 1010.1
20260506175010 77 239 3.5 17.4 0.00 0.00 0.00 18 1010.3
20260506174508 77 270 1.7 9.6 0.00 0.00 0.00 20 1010.4
20260506174004 77 352 0.0 7.0 0.00 0.00 0.00 22 1010.6
20260506173502 75 190 2.6 4.3 0.00 0.00 0.00 31 1010.4
20260506172958 75 90 0.0 2.6 0.00 0.00 0.00 33 1011.0
20260506172455 74 157 0.9 3.5 0.00 0.00 0.00 35 1010.6